�������l�o���
Date,Time,MP-1(��Sv/h),MP-2(��Sv/h),MP-3(��Sv/h),MP-4(��Sv/h),MP-5(��Sv/h),MP-6(��Sv/h),MP-7(��Sv/h),MP-8(��Sv/h),����,����(m/s),���J
2017/04/18,00:00,0.985,1.561,1.073,1.889,1.275,0.539,0.971,0.903,��쓌,11.8,�L
2017/04/18,00:10,0.986,1.562,1.075,1.890,1.275,0.539,0.971,0.904,��쓌,10.9,�L
2017/04/18,00:20,0.985,1.564,1.075,1.886,1.274,0.539,0.972,0.905,��쓌,11.1,�L
2017/04/18,00:30,0.987,1.569,1.076,1.889,1.277,0.539,0.973,0.907,��,9.6,�L
2017/04/18,00:40,0.983,1.567,1.074,1.893,1.274,0.538,0.974,0.907,��,11.3,�L
2017/04/18,00:50,0.980,1.562,1.072,1.885,1.268,0.538,0.970,0.905,��쓌,11.3,�L
2017/04/18,01:00,0.978,1.553,1.067,1.879,1.264,0.537,0.970,0.901,��쓌,10.3,�L
2017/04/18,01:10,0.974,1.549,1.061,1.870,1.254,0.536,0.966,0.902,��쓌,10.5,�L
2017/04/18,01:20,0.972,1.545,1.063,1.872,1.256,0.537,0.968,0.901,��쓌,10.4,�L
2017/04/18,01:30,0.974,1.553,1.069,1.876,1.262,0.537,0.967,0.902,��,13.3,�L
2017/04/18,01:40,0.979,1.559,1.071,1.880,1.264,0.537,0.969,0.902,��쓌,11.6,�L
2017/04/18,01:50,0.979,1.558,1.069,1.878,1.263,0.538,0.969,0.903,��쓌,11.3,�L
2017/04/18,02:00,0.981,1.558,1.069,1.881,1.265,0.537,0.970,0.903,��,11.6,�L
2017/04/18,02:10,0.980,1.558,1.069,1.878,1.262,0.538,0.969,0.903,��쓌,12.5,�L
2017/04/18,02:20,0.978,1.558,1.067,1.877,1.257,0.537,0.968,0.901,��,12.1,�L
2017/04/18,02:30,0.975,1.553,1.066,1.877,1.258,0.536,0.969,0.901,��,11.3,�L
2017/04/18,02:40,0.974,1.550,1.062,1.872,1.250,0.535,0.968,0.900,��,11.3,�L
2017/04/18,02:50,0.971,1.544,1.061,1.867,1.250,0.537,0.967,0.898,��,10.8,�L
2017/04/18,03:00,0.973,1.548,1.061,1.866,1.249,0.533,0.968,0.899,��,10.9,�L
2017/04/18,03:10,0.969,1.543,1.058,1.865,1.246,0.535,0.966,0.898,��,9.2,�L
2017/04/18,03:20,0.970,1.540,1.057,1.860,1.244,0.533,0.963,0.897,��쓌,10.6,�L
2017/04/18,03:30,0.968,1.544,1.059,1.862,1.245,0.535,0.963,0.898,��쓌,10.2,�L
2017/04/18,03:40,0.972,1.540,1.060,1.860,1.246,0.534,0.965,0.898,��쓌,10.0,�L
2017/04/18,03:50,0.967,1.538,1.052,1.856,1.236,0.533,0.962,0.895,��쓌,8.5,�L
2017/04/18,04:00,0.963,1.529,1.051,1.850,1.228,0.532,0.960,0.896,��쓌,7.8,�L
2017/04/18,04:10,0.963,1.534,1.055,1.849,1.233,0.534,0.962,0.897,��쓌,5.5,�L
2017/04/18,04:20,0.967,1.540,1.057,1.859,1.234,0.534,0.961,0.898,��쓌,5.3,�L
2017/04/18,04:30,0.969,1.543,1.058,1.860,1.240,0.535,0.964,0.900,��쓌,4.2,�L
2017/04/18,04:40,0.967,1.543,1.060,1.860,1.242,0.535,0.962,0.897,��쓌,3.9,�L
2017/04/18,04:50,0.972,1.542,1.058,1.861,1.239,0.536,0.964,0.898,��,5.1,�L
2017/04/18,05:00,0.972,1.538,1.058,1.862,1.240,0.538,0.966,0.899,��,4.5,�L
2017/04/18,05:10,0.969,1.538,1.058,1.856,1.236,0.536,0.962,0.899,��쐼,2.3,�L
2017/04/18,05:20,0.971,1.540,1.060,1.856,1.235,0.538,0.964,0.898,��,3.2,�L
2017/04/18,05:30,0.971,1.537,1.060,1.856,1.237,0.538,0.964,0.899,��,5.4,�L
2017/04/18,05:40,0.972,1.541,1.061,1.857,1.236,0.541,0.963,0.900,��쓌,7.8,�L
2017/04/18,05:50,0.975,1.541,1.062,1.857,1.237,0.542,0.965,0.899,��쓌,9.6,�L
2017/04/18,06:00,0.980,1.544,1.066,1.861,1.240,0.543,0.964,0.901,��쓌,11.4,�L
2017/04/18,06:10,0.980,1.547,1.066,1.866,1.239,0.545,0.966,0.902,��,12.8,�L
2017/04/18,06:20,0.982,1.550,1.067,1.869,1.245,0.545,0.968,0.902,��,13.6,�L
2017/04/18,06:30,0.982,1.550,1.068,1.869,1.243,0.545,0.968,0.901,��,13.3,�L
2017/04/18,06:40,0.986,1.554,1.072,1.870,1.248,0.545,0.971,0.902,��,14.1,�L
2017/04/18,06:50,0.985,1.556,1.071,1.873,1.248,0.545,0.969,0.903,��,10.5,�L
2017/04/18,07:00,0.984,1.558,1.070,1.874,1.250,0.544,0.971,0.903,��,8.5,��
2017/04/18,07:10,0.986,1.558,1.072,1.875,1.249,0.542,0.972,0.905,��,8.2,�L
2017/04/18,07:20,0.985,1.561,1.070,1.871,1.253,0.542,0.970,0.905,��,7.2,��
2017/04/18,07:30,0.985,1.563,1.071,1.877,1.251,0.540,0.973,0.907,��,7.5,��
2017/04/18,07:40,0.986,1.562,1.069,1.878,1.254,0.540,0.974,0.904,��,8.4,��
2017/04/18,07:50,0.988,1.564,1.075,1.880,1.255,0.540,0.973,0.906,��,8.5,��
2017/04/18,08:00,0.987,1.562,1.072,1.879,1.254,0.540,0.972,0.908,��,6.7,��
2017/04/18,08:10,0.985,1.566,1.071,1.882,1.258,0.539,0.974,0.905,��,7.3,��
2017/04/18,08:20,0.985,1.566,1.072,1.881,1.258,0.538,0.973,0.906,��,7.1,��
2017/04/18,08:30,0.986,1.564,1.071,1.883,1.261,0.539,0.974,0.904,��,6.7,��
2017/04/18,08:40,0.985,1.565,1.073,1.884,1.262,0.539,0.974,0.906,��,5.2,��
2017/04/18,08:50,0.987,1.567,1.074,1.883,1.261,0.539,0.974,0.906,��,5.3,��
2017/04/18,09:00,0.988,1.568,1.072,1.887,1.263,0.538,0.974,0.905,��,5.8,��
2017/04/18,09:10,0.989,1.564,1.073,1.887,1.263,0.538,0.975,0.907,��,2.8,��
2017/04/18,09:20,0.983,1.565,1.070,1.889,1.262,0.536,0.977,0.905,�k,5.0,��
2017/04/18,09:30,0.984,1.565,1.074,1.887,1.261,0.537,0.974,0.906,�k,5.4,��
2017/04/18,09:40,0.986,1.567,1.069,1.889,1.264,0.535,0.976,0.906,�k,4.7,��
2017/04/18,09:50,0.986,1.564,1.071,1.889,1.266,0.537,0.977,0.907,�k�k��,5.7,��
2017/04/18,10:00,0.985,1.569,1.071,1.890,1.265,0.537,0.976,0.905,�k�k��,4.3,��
2017/04/18,10:10,0.987,1.568,1.071,1.890,1.267,0.534,0.977,0.906,�k,5.6,��
2017/04/18,10:20,0.989,1.571,1.074,1.893,1.269,0.536,0.978,0.906,�k,4.3,��
2017/04/18,10:30,0.989,1.569,1.077,1.896,1.270,0.538,0.978,0.907,�k,3.6,��
2017/04/18,10:40,0.985,1.572,1.075,1.892,1.273,0.538,0.979,0.907,�k,4.5,��
2017/04/18,10:50,0.988,1.573,1.077,1.892,1.273,0.538,0.978,0.907,�k�k��,4.2,��
2017/04/18,11:00,0.989,1.570,1.075,1.897,1.273,0.536,0.980,0.906,�k�k��,4.0,��
2017/04/18,11:10,0.990,1.574,1.078,1.894,1.272,0.535,0.977,0.907,�k�k��,3.3,��
2017/04/18,11:20,0.988,1.575,1.078,1.897,1.274,0.538,0.978,0.906,�k�k��,3.7,��
2017/04/18,11:30,0.989,1.576,1.077,1.898,1.275,0.538,0.979,0.906,�k�k��,4.0,��
2017/04/18,11:40,0.990,1.573,1.076,1.899,1.276,0.537,0.979,0.908,�k�k��,4.2,��
2017/04/18,11:50,0.991,1.577,1.076,1.896,1.277,0.537,0.978,0.908,�k��,2.8,��
2017/04/18,12:00,0.991,1.576,1.079,1.896,1.279,0.538,0.982,0.910,�k�k��,2.0,��
2017/04/18,12:10,0.991,1.578,1.077,1.898,1.282,0.537,0.982,0.910,�k�k��,0.9,��
2017/04/18,12:20,0.993,1.581,1.079,1.895,1.284,0.539,0.983,0.908,���쐼,1.7,��
2017/04/18,12:30,0.993,1.583,1.080,1.902,1.285,0.540,0.982,0.910,�k��,1.9,��
2017/04/18,12:40,0.993,1.585,1.082,1.902,1.286,0.537,0.981,0.908,���k��,7.1,��
2017/04/18,12:50,0.999,1.582,1.086,1.907,1.287,0.540,0.982,0.908,��,9.3,��
2017/04/18,13:00,0.999,1.586,1.085,1.906,1.288,0.540,0.986,0.910,��,8.6,��
2017/04/18,13:10,0.999,1.590,1.089,1.907,1.289,0.541,0.987,0.913,��,8.5,��
2017/04/18,13:20,0.998,1.593,1.087,1.910,1.291,0.541,0.986,0.911,��,8.2,��
2017/04/18,13:30,1.000,1.592,1.087,1.909,1.292,0.540,0.985,0.912,��,8.5,��
2017/04/18,13:40,1.003,1.593,1.088,1.912,1.293,0.540,0.987,0.914,���k��,8.6,��
2017/04/18,13:50,1.002,1.594,1.090,1.912,1.296,0.541,0.986,0.914,���k��,6.3,��
2017/04/18,14:00,1.004,1.596,1.089,1.911,1.297,0.542,0.988,0.913,��,2.6,��
2017/04/18,14:10,1.004,1.594,1.090,1.916,1.298,0.542,0.988,0.914,��,3.3,��
2017/04/18,14:20,1.003,1.600,1.091,1.915,1.297,0.543,0.988,0.914,���쐼,4.8,��
2017/04/18,14:30,1.004,1.596,1.091,1.917,1.299,0.542,0.988,0.912,���k��,7.1,��
2017/04/18,14:40,1.007,1.599,1.092,1.916,1.299,0.542,0.988,0.915,��,8.6,��
2017/04/18,14:50,1.005,1.601,1.094,1.917,1.298,0.542,0.989,0.913,��,10.2,��
2017/04/18,15:00,1.007,1.598,1.095,1.915,1.296,0.544,0.990,0.914,��,7.0,��
2017/04/18,15:10,1.006,1.598,1.092,1.921,1.296,0.543,0.990,0.915,��,5.0,��
2017/04/18,15:20,1.005,1.600,1.093,1.919,1.298,0.541,0.989,0.914,���k��,4.1,��
2017/04/18,15:30,1.007,1.601,1.094,1.919,1.303,0.544,0.991,0.917,���k��,5.8,��
2017/04/18,15:40,1.005,1.597,1.095,1.921,1.300,0.543,0.987,0.914,���k��,7.8,��
2017/04/18,15:50,1.004,1.602,1.093,1.922,1.302,0.543,0.991,0.916,���k��,7.4,��
2017/04/18,16:00,1.009,1.602,1.095,1.920,1.304,0.544,0.988,0.915,��,5.8,��
2017/04/18,16:10,1.005,1.602,1.095,1.923,1.301,0.543,0.986,0.915,��,4.6,��
2017/04/18,16:20,1.008,1.602,1.095,1.923,1.307,0.544,0.987,0.914,��,1.9,��
2017/04/18,16:30,1.006,1.603,1.095,1.925,1.306,0.546,0.986,0.916,���k��,3.2,��
2017/04/18,16:40,1.006,1.604,1.097,1.924,1.304,0.544,0.986,0.915,���k��,2.5,��
2017/04/18,16:50,1.004,1.604,1.094,1.925,1.304,0.543,0.988,0.917,��,5.8,��
2017/04/18,17:00,1.007,1.602,1.095,1.921,1.305,0.545,0.989,0.914,��,8.2,��
2017/04/18,17:10,1.005,1.603,1.095,1.922,1.304,0.546,0.988,0.917,���k��,7.7,��
2017/04/18,17:20,1.006,1.604,1.096,1.923,1.306,0.544,0.990,0.916,���k��,11.9,��
2017/04/18,17:30,1.005,1.606,1.096,1.923,1.305,0.542,0.987,0.917,�k��,10.4,��
2017/04/18,17:40,1.005,1.606,1.095,1.925,1.303,0.544,0.989,0.916,�k��,9.8,��
2017/04/18,17:50,1.005,1.610,1.093,1.925,1.305,0.544,0.988,0.915,�k��,9.6,��
2017/04/18,18:00,1.004,1.606,1.094,1.927,1.305,0.545,0.989,0.916,�k��,10.3,��
2017/04/18,18:10,1.004,1.607,1.097,1.922,1.306,0.545,0.988,0.915,�k��,9.8,��
2017/04/18,18:20,1.008,1.607,1.094,1.927,1.305,0.544,0.990,0.917,�k��,9.3,��
2017/04/18,18:30,1.008,1.607,1.095,1.927,1.308,0.545,0.988,0.917,�k��,10.5,��
2017/04/18,18:40,1.009,1.607,1.097,1.928,1.306,0.544,0.989,0.917,�k��,10.2,��
2017/04/18,18:50,1.007,1.608,1.096,1.928,1.307,0.544,0.988,0.918,�k��,11.0,��
2017/04/18,19:00,1.008,1.608,1.099,1.930,1.308,0.544,0.988,0.918,�k��,10.6,��
2017/04/18,19:10,1.008,1.608,1.100,1.931,1.307,0.545,0.986,0.918,�k��,8.6,��
2017/04/18,19:20,1.007,1.607,1.098,1.932,1.308,0.543,0.988,0.919,���k��,8.1,��
2017/04/18,19:30,1.008,1.608,1.100,1.930,1.308,0.543,0.988,0.920,���k��,8.9,��
2017/04/18,19:40,1.009,1.609,1.100,1.937,1.310,0.543,0.988,0.919,���k��,11.0,��
2017/04/18,19:50,1.005,1.607,1.099,1.933,1.308,0.541,0.988,0.920,�k��,8.1,��
2017/04/18,20:00,1.008,1.609,1.100,1.934,1.311,0.544,0.986,0.919,�k��,7.6,��
2017/04/18,20:10,1.008,1.609,1.099,1.933,1.309,0.543,0.988,0.918,���k��,7.9,��
2017/04/18,20:20,1.007,1.608,1.098,1.932,1.312,0.544,0.988,0.918,���k��,11.3,��
2017/04/18,20:30,1.008,1.607,1.100,1.934,1.309,0.543,0.990,0.918,���k��,10.7,��
2017/04/18,20:40,1.008,1.611,1.099,1.934,1.308,0.542,0.987,0.917,�k��,8.7,��
2017/04/18,20:50,1.008,1.609,1.101,1.936,1.312,0.543,0.989,0.918,�k��,10.0,��
2017/04/18,21:00,1.009,1.608,1.100,1.936,1.310,0.541,0.988,0.917,�k��,8.3,��
2017/04/18,21:10,1.008,1.611,1.098,1.935,1.313,0.543,0.989,0.919,�k��,8.8,��
2017/04/18,21:20,1.010,1.611,1.098,1.934,1.310,0.543,0.987,0.919,���k��,4.9,��
2017/04/18,21:30,1.006,1.610,1.099,1.936,1.311,0.543,0.988,0.919,���k��,7.3,��
2017/04/18,21:40,1.008,1.609,1.103,1.934,1.310,0.543,0.989,0.919,���k��,6.8,��
2017/04/18,21:50,1.011,1.609,1.098,1.934,1.311,0.544,0.989,0.918,���k��,2.6,��
2017/04/18,22:00,1.007,1.609,1.097,1.936,1.311,0.543,0.990,0.919,���k��,2.6,��
2017/04/18,22:10,1.006,1.609,1.098,1.933,1.310,0.543,0.990,0.919,�k��,1.7,��
2017/04/18,22:20,1.008,1.608,1.098,1.934,1.311,0.543,0.990,0.920,�k��,4.1,��
2017/04/18,22:30,1.006,1.608,1.099,1.933,1.311,0.542,0.990,0.917,���k��,3.9,��
2017/04/18,22:40,1.005,1.612,1.096,1.935,1.312,0.544,0.991,0.918,���k��,2.8,��
2017/04/18,22:50,1.006,1.608,1.101,1.933,1.310,0.542,0.992,0.918,���k��,2.3,��
2017/04/18,23:00,1.006,1.608,1.102,1.935,1.309,0.542,0.990,0.917,�k��,6.0,��
2017/04/18,23:10,1.007,1.611,1.097,1.935,1.311,0.543,0.990,0.918,�k��,5.3,��
2017/04/18,23:20,1.006,1.610,1.099,1.936,1.310,0.544,0.992,0.918,�k��,4.7,��
2017/04/18,23:30,1.006,1.610,1.097,1.936,1.313,0.542,0.991,0.920,�k�k��,3.7,��
2017/04/18,23:40,1.006,1.611,1.098,1.933,1.308,0.542,0.990,0.917,�k,2.6,��
2017/04/18,23:50,1.006,1.609,1.099,1.933,1.310,0.544,0.992,0.917,�k,3.5,��
